Voltar ao catálogo

FENGYUN 1C DEB

AtivoSSO
NORAD 36652·DEBRIS·🇨🇳 China

Lançado May 10, 1999 de Taiyuan Satellite Launch Center

Loading…

Próximas Passagens (próximas 24 horas)

TLE

AtualizadoSource: Space-Track

Época: Sep 13, 2026, 12:39 UTC

1 36652U 99025DXW 26256.52757768  .00002385  00000-0  10309-2 0  9998
2 36652  98.9345 348.1389 0049238 280.7392  78.8245 14.24725260682356

Acompanhe FENGYUN 1C DEB em tempo real com AllMySat

Download on the App Store